EW0822 Weather Reports


time (UTC)temp
C
wind
direction
speed
KPH
gust
KPH
rain 1hr
cm
rain 24hr
cm
rain mn
cm
humidity
%
barometer
mb
20200227113050 3 201 0.0 9.7 0.15 0.30 0.15 91 997.8
20200227111521 3 218 0.0 3.2 0.10 0.25 0.13 89 998.2
20200227110018 3 169 0.0 11.3 0.05 0.33 0.08 87 998.8
20200227104516 3 163 0.0 14.5 0.03 0.28 0.05 85 999.2
20200227103012 4 167 0.0 19.3 0.00 0.25 0.03 82 999.5
20200227101520 5 199 3.2 19.3 0.00 0.25 0.03 81 999.7
20200227100020 4 181 1.6 12.9 0.00 0.33 0.03 83 1000.2
20200227094502 4 209 1.6 12.9 0.00 0.33 0.03 83 1000.6
20200227093131 4 167 0.0 14.5 0.00 0.33 0.03 84 1000.8
20200227091716 3 177 1.6 12.9 0.00 0.33 0.03 85 1001.4
20200227090114 3 185 0.0 9.7 0.00 0.43 0.03 86 1001.8
20200227084802 3 180 0.0 8.0 0.00 0.43 0.03 87 1002.2
20200227083048 3 173 0.0 9.7 0.00 0.43 0.03 88 1002.5
20200227081548 3 173 0.0 11.3 0.00 0.43 0.03 89 1002.8
20200227080038 2 174 0.0 9.7 0.00 0.43 0.03 90 1003.2
20200227074554 2 175 0.0 8.0 0.00 0.43 0.03 91 1003.4
20200227073050 -17 0.0 0.0 0.00 0.43 0.03 1003.6
20200227071712 -17 0.0 0.0 0.00 0.43 0.03 1003.6
20200227070039 -17 0.0 0.0 0.00 0.43 0.03 1003.8
20200227064518 -17 0.0 0.0 0.00 0.43 0.03 1004.1
20200227063017 -17 0.0 0.0 0.00 0.43 0.03 1004.1
20200227061526 -17 0.0 0.0 0.00 0.43 0.03 1004.2
20200227060004 -17 0.0 0.0 0.00 0.43 0.03 1004.5
20200227054655 -17 0.0 0.0 0.00 0.43 0.03 1004.6
20200227053208 2 132 0.0 0.0 0.00 0.43 0.03 92 1004.9
20200227051743 2 132 0.0 0.0 0.00 0.43 0.03 91 1005.1
20200227050209 2 132 0.0 0.0 0.00 0.43 0.03 91 1005.2
20200227044633 2 132 0.0 0.0 0.00 0.43 0.03 91 1005.5
20200227043058 2 131 0.0 0.0 0.00 0.43 0.03 91 1005.7
20200227041549 2 131 0.0 0.0 0.00 0.43 0.03 90 1005.9
20200227040123 2 131 0.0 0.0 0.03 0.43 0.03 90 1005.9
20200227034610 3 131 0.0 1.6 0.03 0.43 0.03 90 1006.0
20200227033121 3 82 0.0 3.2 0.03 0.43 0.03 90 1006.1
20200227031629 3 71 0.0 9.7 0.03 0.43 0.03 90 1006.1
20200227030052 3 165 0.0 3.2 0.00 0.41 0.00 91 1006.2
20200227024645 3 132 0.0 0.0 0.00 0.41 0.00 91 1006.2
20200227023132 2 132 0.0 0.0 0.00 0.41 0.00 91 1006.4
20200227021646 2 132 0.0 0.0 0.00 0.41 0.00 91 1006.5
20200227020113 2 132 0.0 0.0 0.00 0.41 0.00 91 1006.4
20200227014553 2 124 0.0 0.0 0.00 0.41 0.00 91 1006.6
20200227013046 2 123 0.0 0.0 0.00 0.41 0.00 91 1006.7
20200227011600 2 123 0.0 0.0 0.00 0.41 0.00 91 1006.8
20200227010044 2 118 0.0 1.6 0.00 0.41 0.00 90 1006.8
20200227004541 2 113 0.0 4.8 0.00 0.41 0.00 90 1006.9
20200227003044 2 88 0.0 6.4 0.00 0.41 0.00 90 1006.9
20200227001615 2 117 0.0 9.7 0.00 0.41 0.00 90 1006.9
20200227000036 2 130 0.0 12.9 0.00 0.43 0.00 92 1006.8
20200226234526 2 75 0.0 0.0 0.00 0.43 0.00 91 1006.7
20200226233022 2 75 0.0 0.0 0.00 0.43 0.00 91 1006.7
20200226231543 2 75 0.0 0.0 0.00 0.43 0.00 91 1006.7
20200226230031 2 75 0.0 0.0 0.00 0.43 0.43 90 1006.6
20200226224553 2 75 0.0 0.0 0.00 0.43 0.43 90 1006.7
20200226223041 2 75 0.0 0.0 0.00 0.43 0.43 90 1006.6
20200226221525 3 75 0.0 12.9 0.00 0.43 0.43 90 1006.7
20200226220021 3 94 0.0 0.0 0.00 0.43 0.43 90 1006.7
20200226214607 3 94 0.0 0.0 0.00 0.43 0.43 90 1006.6
20200226213024 3 123 0.0 0.0 0.00 0.43 0.43 90 1006.6
20200226211516 3 113 0.0 0.0 0.00 0.43 0.43 90 1006.6
20200226210010 3 90 0.0 0.0 0.00 0.43 0.43 90 1006.5
20200226204509 3 103 0.0 0.0 0.00 0.43 0.43 90 1006.4
20200226203008 2 121 0.0 9.7 0.00 0.43 0.43 90 1006.3
20200226201526 2 94 0.0 0.0 0.00 0.43 0.43 91 1006.2
20200226200100 2 98 0.0 0.0 0.00 0.48 0.43 90 1006.1
20200226194523 2 98 0.0 0.0 0.00 0.48 0.43 90 1005.9
20200226193016 3 84 0.0 0.0 0.00 0.48 0.43 89 1005.9
20200226191502 3 65 0.0 1.6 0.00 0.48 0.43 89 1005.8
20200226190001 3 63 1.6 8.0 0.00 0.64 0.43 89 1005.7
20200226184811 3 95 1.6 8.0 0.00 0.64 0.43 89 1005.6
20200226183138 3 62 0.0 4.8 0.00 0.64 0.43 89 1005.5
20200226181909 3 96 0.0 14.5 0.00 0.64 0.43 89 1005.2
20200226180142 3 63 4.8 17.7 0.00 0.79 0.43 89 1004.9
20200226174625 3 71 4.8 14.5 0.00 0.79 0.43 90 1004.5
20200226173133 3 65 3.2 17.7 0.00 0.79 0.43 91 1004.4
20200226171626 3 65 0.0 0.0 0.03 0.79 0.43 92 1004.2
20200226170121 3 59 1.6 9.7 0.05 0.91 0.43 92 1004.0
20200226164654 3 79 6.4 17.7 0.05 0.91 0.43 92 1003.7
20200226163121 3 80 0.0 9.7 0.05 0.91 0.43 93 1003.5
20200226161608 3 109 0.0 8.0 0.03 0.89 0.43 92 1003.3
20200226160118 3 96 0.0 0.0 0.03 0.89 0.41 92 1003.0
20200226154554 3 40 0.0 9.7 0.03 0.89 0.41 91 1002.9
20200226153112 3 51 0.0 16.1 0.03 0.89 0.41 92 1002.8
20200226151604 3 67 1.6 14.5 0.03 0.89 0.41 91 1002.7
20200226150137 3 93 3.2 14.5 0.00 0.86 0.38 92 1002.4
20200226144545 3 82 0.0 8.0 0.00 0.86 0.38 92 1002.2
20200226143102 3 59 0.0 16.1 0.00 0.86 0.38 91 1002.0
20200226141553 3 79 3.2 19.3 0.00 0.86 0.38 89 1001.9
20200226140026 3 99 1.6 19.3 0.00 0.86 0.38 89 1001.7
20200226134607 3 31 1.6 19.3 0.00 0.86 0.38 90 1001.4
20200226133107 3 123 0.0 19.3 0.00 0.86 0.38 90 1001.2
20200226131517 3 94 6.4 22.5 0.00 0.86 0.38 89 1000.9
20200226130104 3 84 8.0 19.3 0.00 0.86 0.38 90 1000.7
20200226124522 3 54 9.7 24.1 0.03 0.86 0.38 91 1000.6
20200226123017 3 48 3.2 12.9 0.05 0.86 0.38 92 1000.3
20200226121528 3 45 1.6 22.5 0.08 0.86 0.38 93 1000.1
20200226120031 3 40 0.0 11.3 0.08 0.86 0.38 94 999.9
20200226114503 2 63 0.0 8.0 0.05 0.84 0.36 94 999.6